Location: Makanda
(37.6176°N, 89.2090°W)
Time: 04:58:22
(UTC+00:00)

Cosmos 864 Rocket - Pass Details

Date: 23 September 2019
Orbit: 954 x 991 km, 82.9° (Epoch: 20 October)

Event Time Altitude Azimuth Distance (km) Brightness Sun altitude
Rises 01:45:01 0° 355° (N) 3,672 7.8 -22.4°
Reaches altitude 10° 01:47:32 10° 357° (N) 2,726 7.1 -22.9°
Maximum altitude 01:53:47 76° 83° (E) 1,013 4.4 -24.1°
Enters shadow 01:56:12 40° 160° (SSE) 1,409 5.0 -24.5°
